Skip Page Navigation
NASA JPL Caltech
NASA Logo - Jet Propulsion Laboratory + View the NASA Portal
+ Center for Near-Earth Object Studies
JPL Home Earth Solar System Stars & Galaxies Technology
JPL Solar System Dynamics
BODIES ORBITS EPHEMERIDES TOOLS PHYSICAL DATA DISCOVERY FAQ SITE MAP
JPL Small-Body Database Browser
Search: [ help ]  
169P/NEAT
Classification: Jupiter-family Comet [NEO]          SPK-ID: 1001656
Ephemeris | Orbit Diagram | Orbital Elements | Mission Design | Physical Parameters | Close-Approach Data ]

[ hide orbit diagram ]

For accurate long-term ephemerides, please instead use our Horizons system.This orbit viewer was implemented using two-body methods, and hence should not be used for determining accurate long-term trajectories (over several years or decades) or planetary encounter circumstances.


[ revert to old Java-based viewer ]

Orbital Elements at Epoch 2454405.5 (2007-Nov-01.0) TDB
Reference: JPL 124 (heliocentric ecliptic J2000)
 Element Value Uncertainty (1-sigma)   Units 
e .7668594528813818 1.5475e-08  
a 2.604330237990576 1.0617e-08 au
q .6071749765626839 3.839e-08 au
i 11.30248657910837 5.7236e-06 deg
node 176.2132135046318 3.1326e-05 deg
peri 217.9787791565537 3.1506e-05 deg
M 181.654687157076 1.0615e-06 deg
tp 2455166.004356459450
(2009-Nov-30.50435646)
8.1869e-06 TDB
period 1535.120626167129
4.20
9.3874e-06
2.57e-08
d
yr
n .234509258662522 1.434e-09 deg/d
Q 4.601485499418468 1.8759e-08 au
  Orbit Determination Parameters
   # obs. used (total)      1213  
   data-arc span      11390 days (31.18 yr)  
   first obs. used      1989-03-07  
   last obs. used      2020-05-13  
   planetary ephem.      DE431  
   SB-pert. ephem.      SB431-N16  
   condition code      0  
   norm. resid. RMS      .55473  
   source      ORB  
   producer      Otto Matic  
   solution date      2020-May-26 12:44:58  

Additional Information
 Earth MOID = .142371 au 
 Jupiter MOID = .975032 au 
 T_jup = 2.888 
[ show covariance matrix ]

Ephemeris | Orbit Diagram | Orbital Elements | Mission Design | Physical Parameters | Close-Approach Data ]

Physical Parameter Table
Parameter Symbol Value Units Sigma Reference Notes
comet total magnitude M1 16.5   1. 124 2 parameter fit from 300 observations, autocmod 2.8
comet total magnitude slope K1 5.5   n/a 124 autocmod 2.8
rotation period rot_per 8.369 h n/a LCDB (Rev. 2019-August); Warner et al., 2009 Result based on less than full coverage, so that the period may be wrong by 30 percent or so.
Published Reference List:
[Warner, B.D. (2006) Minor Planet Bull. 33, 35-39.]

